Погода в Шемонаихе

Казахстан     50°37′30″N   81°54′42″E
темп.,
°C
ветер,
м/с
пор.,
м/с
влажн.,
%
обл.,
%
осадки,
мм/ч
давл.,
гПа
погр.,
м
25 февраля, чт
чт2500:00−10зсз2494100 0.6 101793
03:00−10юз3796100 0.8 1017689
06:00−13юз61493100 2.1 10201142
09:00−18юз4789100 0.0 1025209
12:00−18ююз7118186 0.0 1027846
15:00−16ююз11167767 0.0 10271644
18:00−16ююз9159383 0.2 10281494
21:00−16юз91494100 0.4 10291515
26 февраля, пт
пт2600:00−20юз51195100 0.6 10301070
03:00−24юз51290100 0.0 1033654
06:00−25ююз51091100 0.0 1037395
09:00−26ю41092100 0.0 1039398
12:00−24ю61085100 0.0 1040686
15:00−22ю61086100 0.0 1039693
18:00−25ю339297 0.0 104045
21:00−25ю339093 0.0 104128
27 февраля, сб
сб2700:00−25ююв239090 0.0 104121
03:00−26ю338913 0.0 104223
06:00−27ююв23886 0.0 104220
09:00−26ююв34900 0.0 104170
12:00−21ю37900 0.0 1040297
15:00−18ю498861 0.0 1038485
18:00−21ю239868 0.0 103822
21:00−19ююв349181 0.0 103866
28 февраля, вс
вс2800:00−17ююв4118591 0.0 1038262
03:00−17ююв41383100 0.0 1036342
06:00−17ююв51480100 0.0 1036372
09:00−15ююв6177699 0.0 1035502
12:00−11ююв9177199 0.0 1032719
15:00−10ююв101772100 0.0 1029846
18:00−10ю92073100 0.0 1027766
21:00−10ю102176100 0.3 1026809
1 марта, пн
пн100:00−10ю102089100 1.1 1026803
03:00−9ю101994100 1.5 1024776
06:00−9ю101993100 3.4 1024739
09:00−8ю101992100 1.4 1023736
12:00−7ю101893100 2.8 1022827
15:00−5ю91595100 1.9 1021923
18:00−5ю81595100 3.7 1019841
21:00−5ю81695100 1.3 1020754